TimeMST,TemperatureF,Dew PointF,Humidity,Sea Level PressureIn,VisibilityMPH,Wind Direction,Wind SpeedMPH,Gust SpeedMPH,PrecipitationIn,Events,Conditions,WindDirDegrees,DateUTC
12:51 AM,37.9,34.0,86,29.79,-9999.0,SE,9.2,17.3,0.02,,Unknown,140,2012-11-21 07:51:00
1:51 AM,37.0,34.0,89,29.77,-9999.0,SSE,10.4,17.3,0.06,,Unknown,150,2012-11-21 08:51:00
2:51 AM,37.0,34.0,89,29.77,-9999.0,ESE,11.5,21.9,0.03,,Unknown,120,2012-11-21 09:51:00
3:51 AM,37.9,34.0,86,29.73,-9999.0,SE,10.4,17.3,N/A,,Unknown,130,2012-11-21 10:51:00
4:51 AM,39.9,30.9,70,29.70,-9999.0,SSE,16.1,28.8,N/A,,Unknown,160,2012-11-21 11:51:00
5:51 AM,39.9,30.9,70,29.68,-9999.0,SE,6.9,-,0.01,,Unknown,140,2012-11-21 12:51:00
6:51 AM,39.0,28.9,67,29.69,-9999.0,SSE,9.2,-,0.03,,Unknown,150,2012-11-21 13:51:00
7:51 AM,39.0,28.0,65,29.70,-9999.0,Variable,3.5,26.5,0.02,,Unknown,0,2012-11-21 14:51:00
8:51 AM,34.0,32.0,92,29.74,-9999.0,SE,8.1,17.3,0.03,,Unknown,140,2012-11-21 15:51:00
9:51 AM,35.1,32.0,89,29.75,-9999.0,NE,3.5,-,0.03,,Unknown,50,2012-11-21 16:51:00
10:51 AM,33.1,30.9,92,29.78,-9999.0,North,6.9,-,0.09,,Unknown,10,2012-11-21 17:51:00
11:51 AM,33.1,30.9,92,29.80,-9999.0,ESE,5.8,-,0.08,,Unknown,120,2012-11-21 18:51:00
12:51 PM,36.0,25.0,64,29.78,-9999.0,SW,11.5,23.0,0.02,,Unknown,230,2012-11-21 19:51:00
1:51 PM,32.0,30.0,92,29.81,-9999.0,NNW,4.6,-,N/A,,Unknown,340,2012-11-21 20:51:00
2:51 PM,32.0,28.9,88,29.83,-9999.0,North,9.2,-,0.02,,Unknown,360,2012-11-21 21:51:00
3:51 PM,30.9,26.1,82,29.86,-9999.0,North,4.6,-,0.01,,Unknown,10,2012-11-21 22:51:00
4:51 PM,30.9,21.0,67,29.89,-9999.0,SW,3.5,-,N/A,,Unknown,220,2012-11-21 23:51:00
5:51 PM,28.0,23.0,81,29.94,-9999.0,West,4.6,-,N/A,,Unknown,280,2012-11-22 00:51:00
6:51 PM,27.0,21.9,81,-9999,-9999.0,North,9.2,-,N/A,,Unknown,10,2012-11-22 01:51:00
7:51 PM,24.1,21.9,91,-9999,-9999.0,NE,4.6,-,0.10,,Unknown,40,2012-11-22 02:51:00
8:51 PM,24.1,21.0,88,-9999,-9999.0,Calm,Calm,-,0.01,,Unknown,0,2012-11-22 03:51:00
9:51 PM,23.0,18.0,81,-9999,-9999.0,Variable,3.5,-,N/A,,Unknown,0,2012-11-22 04:51:00
10:51 PM,23.0,19.0,85,-9999,-9999.0,Calm,Calm,-,N/A,,Unknown,0,2012-11-22 05:51:00
11:51 PM,26.1,17.1,69,-9999,-9999.0,NNW,9.2,-,N/A,,Unknown,330,2012-11-22 06:51:00